GEFSMA_500_meanwind_354.txt.gz
Wind_Speed
4 4 3 4 4 3 4 3 4 4 4 4 5 6 6 5 5 5 5 5 6 6 6 6 5 6 6 6 6 6 7 7 7 7 7 7 7 7 7 8 8 9 9
4 4 4 4 4 4 4 4 5 5 5 5 5 6 6 6 6 5 6 6 6 6 7 6 6 6 6 5 6 6 7 7 8 8 9 8 8 9 9 9 9 9 10
4 4 4 4 4 4 4 4 5 6 6 6 6 6 6 6 6 6 6 6 7 7 7 7 6 6 6 6 6 7 7 8 8 9 9 9 9 9 9 10 9 9 10
4 4 4 4 4 4 5 5 5 6 7 7 7 7 6 6 7 8 8 7 8 8 8 7 7 6 6 6 7 8 9 9 9 9 9 10 10 10 10 10 10 10 11
3 4 4 4 4 4 5 5 6 7 8 8 7 7 7 7 8 8 8 8 8 9 8 8 8 7 7 8 9 9 10 10 10 10 10 10 11 11 11 11 11 11 11
4 5 5 5 5 5 6 6 7 8 8 8 8 8 8 8 9 9 9 9 9 9 9 9 8 8 9 9 10 10 10 10 11 11 12 12 12 12 11 12 12 12 12
6 6 7 7 7 7 7 7 8 9 9 8 8 8 9 9 9 10 10 10 10 10 10 10 10 10 10 11 11 11 11 12 12 12 13 12 13 13 13 12 12 13 13
7 7 8 8 9 9 9 9 9 10 9 9 9 9 10 10 11 11 12 12 12 11 11 11 11 12 12 12 12 12 13 13 13 13 14 14 14 14 13 13 13 13 13
9 10 11 10 10 10 11 11 11 11 11 11 11 11 11 11 12 12 13 13 13 13 13 13 13 13 13 13 14 14 14 14 14 15 15 15 15 15 15 15 15 14 15
10 11 12 12 12 12 11 12 12 12 12 13 12 12 12 12 13 13 14 14 14 14 14 14 14 14 14 14 14 15 15 15 15 16 16 17 16 16 17 17 16 16 16
12 13 14 13 13 12 12 13 13 13 14 14 14 14 13 14 14 14 14 15 16 16 15 15 15 15 15 15 15 15 16 16 17 17 17 17 18 18 18 17 18 17 17
14 15 15 15 14 15 14 14 15 15 16 16 15 15 15 15 16 15 15 16 16 16 16 16 16 17 16 16 17 17 17 17 18 18 19 19 19 19 20 19 19 19 19
15 16 16 16 15 16 16 16 17 17 17 17 17 17 17 17 17 16 16 16 17 17 18 18 19 19 18 18 19 19 18 18 19 20 20 20 21 21 21 21 20 20 20
17 17 17 17 18 18 18 18 18 19 19 19 19 19 19 18 18 18 17 17 18 19 20 20 20 20 19 20 20 20 20 19 19 19 20 21 22 22 21 22 22 22 22
19 18 18 19 20 21 20 19 20 20 20 19 19 20 20 20 20 19 18 19 19 20 21 22 22 22 21 21 21 21 20 20 20 20 21 21 21 22 22 22 23 24 24
20 20 20 21 21 22 22 22 21 22 22 21 21 21 21 21 20 20 20 21 21 21 21 22 22 22 22 21 21 21 21 21 21 22 22 22 22 22 23 23 24 24 24
22 23 23 23 23 23 22 22 22 22 22 22 22 22 22 21 21 21 22 23 23 22 22 22 22 22 22 22 22 22 22 22 22 23 23 23 24 24 25 25 25 25 25
23 24 24 24 23 23 23 23 23 22 22 23 23 22 22 23 22 23 24 24 23 23 23 22 22 23 23 23 24 24 24 24 25 25 25 24 25 26 26 26 26 27 27
25 25 25 25 24 23 23 23 23 23 23 23 23 23 24 25 25 25 25 25 25 24 24 23 23 24 24 24 24 25 26 26 26 26 26 26 26 26 26 26 27 27 27
26 25 25 25 24 24 24 25 26 25 25 25 25 25 26 26 27 27 26 26 26 25 25 25 25 24 24 25 25 25 25 26 27 27 27 27 27 26 26 26 26 27 27
25 25 25 25 25 25 25 25 26 27 27 27 27 27 28 28 28 28 28 27 26 26 25 26 25 25 25 25 26 26 26 27 27 28 28 28 27 26 26 27 27 28 28
26 26 26 26 26 26 27 27 27 28 28 28 29 29 29 29 29 29 29 28 27 27 26 26 26 26 27 27 26 26 27 27 27 27 27 27 28 27 27 27 28 28 29
27 26 27 26 27 27 28 28 28 28 28 28 29 30 30 30 29 29 29 29 28 28 28 27 27 27 27 28 27 27 27 28 28 28 28 28 28 28 28 28 27 27 28
27 27 27 26 27 28 28 29 29 28 29 30 29 29 29 30 29 29 29 29 29 28 28 28 28 28 28 28 29 28 28 28 28 28 29 28 28 29 29 29 29 28 29
27 27 27 27 28 28 29 29 30 30 30 29 29 29 29 29 29 29 29 29 29 29 29 29 29 29 29 29 30 29 29 29 28 29 29 29 29 29 28 28 28 29 29
28 28 27 28 29 29 29 29 29 30 30 29 30 29 29 29 29 29 29 29 29 29 30 30 30 30 30 30 30 30 30 30 29 29 29 29 28 28 28 29 29 29 29

GEFSMA_500_meanwind_360.txt.gz
Wind_Speed
2 3 4 4 4 4 4 4 4 4 5 6 6 6 6 5 6 6 6 5 6 6 7 7 7 6 6 7 7 8 8 8 9 9 9 9 9 8 8 9 8 8 9
3 3 4 4 5 5 5 4 5 5 5 6 6 6 6 6 7 7 7 7 7 7 7 7 7 7 7 7 7 8 8 9 9 9 9 10 10 9 9 9 10 9 9
4 4 5 5 6 5 5 6 6 6 6 7 7 7 7 7 7 8 8 8 8 8 8 8 8 8 8 8 8 8 8 9 9 10 10 10 10 10 10 10 10 10 10
5 5 6 6 6 6 6 6 7 7 7 7 8 8 8 9 9 8 9 9 9 9 9 9 9 9 9 9 9 9 9 10 11 11 11 11 11 11 12 10 11 10 11
7 7 7 8 8 7 7 7 8 8 8 9 9 9 9 10 10 10 10 10 10 11 11 11 11 10 10 10 11 11 11 11 12 12 12 12 12 13 13 11 11 11 11
8 8 9 9 9 9 9 9 9 9 10 10 10 10 10 10 11 11 11 11 12 12 12 12 12 12 12 12 12 12 13 13 13 13 14 14 14 14 14 14 13 12 12
9 9 10 11 10 10 10 10 11 11 11 11 11 12 11 12 12 13 12 12 13 13 13 13 14 14 14 14 14 14 14 14 14 15 15 15 15 15 16 15 14 14 14
10 11 10 11 11 12 12 12 12 12 12 12 12 13 13 13 14 14 14 13 13 13 14 15 16 15 15 15 15 16 15 15 15 15 15 16 16 16 16 16 16 16 16
12 12 12 12 13 13 12 13 14 14 14 13 13 13 13 14 15 16 16 15 15 15 15 15 16 16 16 16 17 16 17 17 17 17 17 16 17 17 17 18 18 18 17
12 12 13 14 14 14 14 14 15 16 16 16 15 14 15 16 16 17 17 17 17 16 16 17 17 17 17 17 17 17 17 18 18 18 18 18 18 18 18 19 19 19 19
14 14 15 15 15 16 16 17 17 17 18 17 17 17 17 17 18 18 18 18 17 17 18 18 18 19 19 18 18 18 19 20 20 19 19 19 19 20 20 20 20 20 20
15 16 16 17 18 18 18 18 18 18 18 18 18 18 19 19 19 19 19 18 18 18 19 19 19 19 20 20 20 20 20 20 20 20 20 20 20 21 21 21 21 21 21
16 17 18 18 19 18 18 18 17 17 18 19 20 20 20 20 21 20 20 19 20 20 20 20 20 20 20 21 21 21 21 21 21 21 21 21 21 21 21 21 21 21 22
17 18 18 19 19 19 19 19 19 20 20 20 21 21 22 22 21 22 21 21 21 21 21 21 22 22 21 20 20 21 22 22 22 22 22 22 22 22 22 22 22 22 22
18 19 20 20 21 21 21 21 21 21 21 22 22 22 23 23 22 22 22 22 23 22 22 22 22 22 22 22 22 22 22 22 22 22 22 22 23 23 23 23 24 23 23
20 21 21 22 22 22 21 22 22 22 22 22 23 23 23 23 23 23 23 23 23 23 24 24 23 23 23 23 23 23 23 24 24 24 24 24 24 24 24 25 25 25 25
22 23 23 22 23 23 22 23 23 22 22 23 24 24 23 23 24 24 24 25 24 24 24 24 24 24 23 23 24 25 25 25 26 26 26 26 26 26 26 26 25 25 26
24 24 24 23 23 24 24 24 23 24 24 24 24 23 23 24 24 25 25 26 26 25 25 24 24 24 24 24 25 26 27 27 27 27 27 27 26 26 26 27 27 27 27
25 25 25 25 25 25 25 25 25 25 25 25 25 25 25 25 25 26 26 26 26 26 26 25 25 25 25 26 26 27 27 28 28 28 27 27 27 27 27 27 28 28 28
26 25 26 26 26 26 26 25 26 25 26 26 26 26 27 27 27 27 27 27 27 27 27 27 27 26 27 27 27 27 27 27 27 27 28 28 28 28 28 28 28 28 29
26 26 26 26 25 26 26 27 26 26 26 26 26 26 27 27 28 28 28 28 29 29 29 29 28 28 27 27 27 27 27 27 27 28 28 28 29 30 30 29 30 30 29
26 26 26 25 25 26 26 27 27 27 27 27 27 27 28 28 28 28 29 29 29 30 30 30 30 29 28 28 27 27 28 28 28 28 29 29 29 30 30 30 30 30 30
26 25 26 26 26 26 27 28 28 28 28 28 28 28 28 29 29 29 29 29 29 29 30 30 30 30 29 29 28 28 28 29 29 29 30 30 31 30 30 31 31 30 30
26 26 26 26 27 27 27 28 27 27 28 29 28 28 28 28 29 29 29 30 30 29 30 30 30 30 30 29 29 29 29 30 30 31 31 31 31 30 30 30 30 30 30
26 27 26 27 27 27 27 27 28 28 28 28 28 28 28 28 28 29 29 29 29 29 29 30 30 30 30 30 30 29 30 30 31 30 31 30 30 30 30 30 31 31 30
27 27 26 27 27 27 27 27 28 29 29 29 29 29 29 29 30 29 29 28 29 29 29 30 30 30 30 30 30 30 30 31 31 31 31 31 30 31 30 30 31 31 31

GEFSMA_500_meanwind_366.txt.gz
Wind_Speed
2 2 2 2 3 3 3 4 4 4 4 5 5 4 5 6 6 6 6 7 7 7 7 7 7 8 8 8 8 9 10 10 11 10 10 11 10 10 9 9 8 9 9
3 3 3 3 4 4 4 5 5 6 6 6 5 6 6 7 7 8 8 8 8 9 9 9 8 8 8 9 9 9 10 10 11 11 11 11 11 10 10 10 10 9 10
4 5 5 5 5 5 6 6 7 7 7 7 7 7 7 7 8 8 9 9 10 10 10 10 10 10 10 10 9 10 10 10 11 11 12 12 12 12 11 11 10 10 11
4 5 6 7 7 7 7 8 9 8 8 8 8 8 8 9 9 9 10 10 11 11 11 11 11 11 11 11 11 11 11 11 11 12 12 13 13 13 12 12 12 11 11
6 6 7 7 8 8 8 9 10 9 9 9 10 10 10 10 10 11 11 11 12 12 12 12 12 12 12 12 12 12 12 12 12 12 13 13 13 13 13 13 13 13 12
7 8 9 9 9 9 9 8 9 9 9 10 11 11 11 11 11 12 12 12 12 12 12 13 13 13 13 13 13 14 13 13 14 13 13 13 13 14 14 14 14 14 14
9 9 10 10 10 10 10 10 10 10 11 12 11 12 12 12 12 13 13 14 13 13 14 14 15 14 14 14 14 14 14 13 14 13 13 13 14 15 15 16 15 15 14
10 11 11 11 11 11 11 12 12 12 12 12 12 12 12 13 13 14 14 15 15 15 15 15 14 14 14 14 14 14 15 15 15 15 14 14 15 16 16 16 17 17 16
11 12 12 12 12 12 12 13 13 12 13 13 14 14 14 14 15 15 15 16 16 16 16 16 16 16 16 16 15 16 16 16 16 16 16 16 16 16 17 17 17 17 18
13 13 12 12 12 13 14 14 14 14 15 15 15 15 15 15 16 15 15 16 16 16 16 16 16 17 17 17 17 17 18 17 17 17 17 17 17 17 17 18 18 18 18
13 13 13 13 14 14 15 15 15 15 15 15 16 17 17 17 17 17 17 17 17 16 16 15 16 17 17 17 18 17 17 18 18 18 18 19 19 18 18 19 19 19 20
13 13 14 14 15 16 16 16 16 16 16 17 17 18 19 19 19 18 18 18 18 17 16 16 16 17 18 18 19 18 18 19 19 19 19 19 20 20 19 20 20 20 20
14 14 15 16 16 16 17 17 17 17 17 18 19 19 19 19 20 20 19 19 18 18 19 18 18 19 19 20 20 19 19 19 20 20 21 21 21 21 21 21 21 21 21
15 15 16 17 17 17 18 18 18 18 18 19 19 20 20 20 20 20 20 20 19 20 20 20 20 20 21 21 21 21 20 20 21 22 22 22 22 22 22 23 23 23 23
17 18 18 18 18 18 19 19 19 20 20 20 20 21 21 20 20 21 20 20 21 21 22 21 22 22 22 22 22 22 23 23 22 23 24 24 24 24 24 25 25 24 24
19 19 19 20 20 20 20 20 21 21 22 22 22 21 21 21 21 21 21 22 23 23 23 23 23 23 23 23 23 23 24 25 25 24 25 25 25 26 26 26 26 25 25
20 20 20 21 21 21 21 21 21 22 22 23 23 22 22 22 22 22 23 24 24 24 24 24 24 24 24 24 24 25 25 25 25 25 25 26 26 26 26 26 26 27 27
21 22 22 22 22 22 23 22 23 22 23 23 23 23 23 23 24 24 25 25 25 25 25 25 26 26 26 26 26 26 26 27 26 26 26 26 26 27 27 27 27 27 27
22 22 22 22 23 23 23 23 23 23 23 23 23 23 24 25 26 26 26 26 26 26 26 27 27 27 27 27 27 27 27 27 27 27 27 27 27 27 27 27 27 27 28
22 22 23 23 24 24 24 24 24 23 23 23 23 24 24 25 26 27 27 27 27 27 28 28 28 28 28 28 28 28 27 27 28 28 28 28 28 27 27 27 28 28 28
23 22 23 24 24 24 24 24 24 24 24 24 24 24 25 25 26 26 26 26 27 27 28 29 29 29 29 29 28 28 28 28 28 28 28 28 28 29 29 29 29 29 30
23 23 24 24 25 24 25 25 24 25 25 25 25 25 25 26 26 26 27 27 27 27 28 29 29 29 29 29 29 29 29 29 29 28 28 28 29 29 30 30 30 30 30
24 26 26 26 26 26 26 25 25 25 26 26 26 26 26 26 27 27 28 27 28 28 29 29 28 28 29 29 29 29 28 29 29 28 29 29 29 30 31 31 31 31 31
27 27 26 26 26 26 26 26 26 26 27 28 28 28 28 28 28 28 29 29 29 29 29 29 28 28 29 28 28 29 29 30 30 30 30 30 30 31 31 32 32 32 32
28 27 26 27 27 27 26 27 27 27 27 28 28 28 29 29 29 29 29 29 29 29 29 28 28 28 28 29 29 30 30 30 30 30 31 31 31 31 31 31 32 32 33
29 28 28 27 26 26 26 27 27 27 27 27 28 28 28 28 29 29 29 29 28 29 29 29 29 29 30 30 30 30 30 30 31 31 31 31 31 31 30 30 31 31 32

GEFSMA_500_meanwind_372.txt.gz
Wind_Speed
7 7 6 6 6 6 6 5 5 4 5 5 5 5 6 6 6 6 7 7 8 8 8 8 8 8 8 9 9 9 10 11 10 10 9 9 10 9 9 9 9 8 9
7 8 8 8 7 7 7 7 6 6 6 6 7 7 7 7 7 8 8 8 9 9 9 9 9 10 10 10 10 10 10 11 11 11 11 11 11 10 9 9 10 9 9
8 8 8 8 8 8 8 8 8 8 7 7 8 8 8 8 8 8 8 9 9 9 9 10 10 10 11 11 11 11 11 11 11 12 12 12 11 10 10 10 10 10 9
9 9 9 9 9 8 9 9 9 9 9 9 9 9 9 9 9 9 9 9 9 9 9 9 10 11 11 11 11 11 12 12 12 12 12 12 12 12 11 11 11 10 10
10 10 10 9 9 9 9 9 10 10 10 10 10 9 10 9 10 9 10 10 10 10 10 10 11 11 11 11 12 12 12 12 13 13 13 13 13 13 12 12 11 11 11
11 11 10 10 10 10 10 10 10 10 10 10 10 10 10 10 10 11 11 12 12 12 12 12 11 11 11 11 11 11 11 12 13 14 14 14 13 13 13 13 12 11 11
12 11 12 12 11 11 11 12 12 11 10 10 10 11 10 11 11 12 12 13 13 13 12 12 11 12 11 11 12 12 12 12 14 14 14 14 14 14 13 13 13 13 13
13 12 12 12 12 13 12 12 12 12 11 11 11 12 11 12 12 12 13 14 14 13 13 13 13 12 12 12 12 13 12 13 13 14 14 14 14 15 14 14 14 14 14
14 13 13 13 13 14 13 13 13 13 13 13 13 13 13 13 13 13 14 14 14 15 14 14 14 14 14 14 14 14 14 14 14 14 14 14 14 15 15 15 15 15 15
14 14 14 14 14 14 14 14 14 14 14 14 14 14 15 15 15 14 14 15 14 15 15 15 15 16 15 15 15 15 15 14 14 15 15 16 15 15 15 15 15 16 16
14 14 14 14 14 15 15 15 15 16 16 15 15 16 17 17 16 15 15 15 15 15 15 16 16 16 16 16 15 15 16 16 16 16 16 17 17 16 17 17 16 17 17
15 15 15 15 15 15 15 15 16 16 16 16 17 17 17 17 17 17 17 15 15 16 16 16 16 16 16 17 17 16 17 17 17 17 17 18 18 18 18 18 19 18 19
16 16 15 15 15 15 15 15 15 15 16 17 18 18 19 19 19 19 18 17 17 16 16 16 16 17 17 18 19 18 19 19 19 19 19 19 20 20 20 20 20 20 20
17 16 16 16 16 16 16 17 17 17 17 18 18 19 20 20 20 20 19 18 18 18 17 17 17 18 18 18 18 19 19 19 20 20 20 20 22 22 22 22 22 22 22
18 18 17 18 18 18 18 18 18 18 19 19 20 20 20 20 20 21 20 20 20 20 19 19 19 19 20 20 19 20 20 20 20 21 22 22 23 23 23 23 24 24 23
19 19 19 19 19 19 19 19 20 20 20 20 21 21 21 21 21 21 21 21 21 21 21 21 22 22 22 22 21 21 21 21 22 22 22 23 24 24 24 24 24 24 24
20 20 20 20 20 20 20 20 21 21 21 21 21 22 22 22 22 22 23 23 23 23 23 22 23 22 23 23 23 23 23 23 23 23 23 24 24 25 25 25 25 25 25
22 21 21 21 21 21 21 22 22 23 22 22 23 23 23 24 24 24 24 25 25 24 24 24 25 25 24 24 24 24 24 25 25 25 24 25 25 26 26 26 26 26 27
23 23 22 22 22 23 23 23 23 24 24 24 24 24 25 25 26 26 25 26 26 26 26 26 26 26 26 26 26 26 26 26 26 26 26 26 26 27 28 28 29 29 29
23 23 23 24 24 24 24 24 25 25 25 26 27 27 27 27 27 26 26 26 27 27 27 27 27 27 27 27 27 27 27 27 27 27 26 26 26 27 28 29 30 30 31
24 25 25 25 25 25 26 26 26 26 27 27 27 27 27 28 27 27 27 27 27 27 27 28 27 28 28 28 28 28 27 27 27 28 27 27 27 27 27 28 29 30 31
26 26 26 27 27 27 28 28 28 28 29 28 28 28 28 28 28 27 27 28 28 28 28 27 27 28 29 29 30 29 29 29 28 28 28 29 28 28 28 28 28 29 29
26 26 27 28 29 29 29 29 30 29 29 29 29 30 30 29 29 28 27 28 27 28 28 28 28 28 29 29 29 29 29 29 28 28 29 29 29 29 29 29 29 29 29
27 27 28 29 29 30 30 29 29 29 29 28 28 28 28 28 28 28 28 28 28 27 27 28 28 29 29 28 29 29 29 29 29 29 29 29 29 29 28 29 29 28 28
28 28 28 29 30 30 29 30 29 29 28 28 28 28 28 28 29 29 29 29 29 29 29 28 28 28 28 28 28 28 28 27 28 28 28 28 28 28 28 28 29 29 30
30 29 29 29 30 30 30 30 30 29 28 28 29 29 29 29 29 29 29 29 29 29 28 28 28 28 28 28 28 28 29 29 29 29 29 29 29 29 29 29 30 30 31

GEFSMA_500_meanwind_378.txt.gz
Wind_Speed
4 4 4 4 4 4 4 3 3 4 3 3 5 6 6 7 8 8 7 8 8 8 8 8 8 8 9 9 9 9 10 10 10 10 11 11 11 10 10 9 8 8 8
5 5 5 5 4 3 3 4 4 4 4 4 5 7 7 7 8 8 8 8 8 9 9 9 9 9 10 9 10 10 11 11 11 11 11 12 12 12 11 11 10 10 9
5 6 5 5 4 4 4 4 4 5 5 6 7 7 8 8 8 7 8 8 8 9 10 10 10 11 10 10 10 11 11 11 11 11 11 12 13 13 12 12 12 12 11
6 6 6 5 5 5 5 5 5 6 6 6 7 8 8 9 9 8 8 8 9 9 10 11 11 12 12 11 11 11 12 12 12 12 12 12 13 13 13 13 13 12 12
6 7 6 6 6 6 7 7 7 7 7 7 7 8 8 8 9 9 9 9 9 9 10 11 12 12 12 12 12 12 12 13 13 13 13 13 13 14 13 13 13 13 13
8 8 7 7 7 7 8 8 8 8 8 8 7 8 8 8 9 10 10 10 11 11 11 11 12 12 12 12 13 12 13 13 13 13 13 13 13 14 14 14 14 14 14
9 8 7 8 8 9 9 9 9 9 9 8 8 9 8 9 10 10 11 12 12 12 12 12 12 13 13 13 13 12 13 13 13 13 13 13 14 14 15 15 15 15 15
10 9 8 9 9 9 10 10 10 10 10 10 9 8 8 9 10 10 11 12 12 12 13 13 13 14 14 14 14 14 14 14 14 14 14 15 15 14 15 15 16 16 16
11 10 10 10 10 10 11 11 11 10 11 11 11 10 9 9 10 11 11 12 12 12 13 13 14 14 15 15 15 14 14 15 15 15 16 16 16 16 16 16 17 17 17
11 11 10 10 10 10 11 11 11 11 10 11 11 11 11 11 11 12 13 13 12 12 13 14 15 16 15 15 16 15 15 15 15 16 16 16 17 17 17 18 18 18 18
12 12 11 11 11 11 11 11 11 11 11 12 12 12 12 12 13 14 14 14 14 14 13 14 14 14 14 15 16 16 16 16 16 17 17 18 18 18 18 18 18 18 19
12 12 13 12 13 13 13 13 13 13 13 13 13 14 14 14 15 15 14 15 15 15 15 15 15 15 16 16 16 16 17 18 18 18 19 19 19 19 18 19 19 19 19
13 13 13 13 13 13 13 14 14 14 14 14 15 15 15 16 16 16 16 16 16 16 16 17 17 17 17 17 17 17 19 19 20 20 21 20 20 20 19 20 20 20 20
14 15 14 13 13 13 13 14 15 15 15 15 16 16 16 17 17 17 17 17 16 17 17 18 19 19 19 19 18 19 19 20 20 21 21 21 21 21 21 21 21 21 21
16 16 15 15 15 15 15 15 15 15 16 17 17 17 18 18 17 18 18 18 17 17 17 18 19 20 21 21 21 20 21 21 21 22 23 23 22 22 22 23 23 23 23
16 16 16 16 16 16 16 16 16 16 17 17 18 19 19 19 19 19 20 20 20 19 19 19 20 21 22 22 21 21 21 22 22 23 23 23 24 24 24 24 25 25 25
18 18 18 17 17 17 17 17 16 17 18 18 19 19 19 19 20 20 21 21 22 22 21 20 21 21 22 22 23 23 23 22 23 23 23 24 25 26 26 26 27 28 28
20 19 19 19 18 18 19 19 19 19 19 20 20 20 20 21 21 22 22 23 23 23 23 23 22 22 22 23 24 25 25 24 24 24 24 25 26 27 28 28 29 30 30
22 21 20 20 20 20 20 20 20 20 20 21 21 22 22 22 22 23 23 23 24 24 24 24 24 24 24 24 25 25 26 26 26 26 26 27 27 28 28 29 30 31 31
23 22 22 22 22 21 21 21 21 22 22 22 23 23 23 23 23 23 23 24 24 25 25 25 25 25 25 25 26 26 27 27 27 28 28 29 29 29 29 30 31 32 32
24 24 24 23 22 22 22 22 22 23 23 24 24 24 24 24 24 25 25 24 25 25 25 26 25 25 26 26 27 27 27 28 27 28 29 29 30 30 30 31 32 32 33
25 25 24 24 23 23 24 24 24 24 24 24 24 24 24 24 24 24 24 24 24 25 26 26 26 26 25 26 26 26 27 27 28 28 28 28 29 30 30 30 30 31 32
26 25 25 24 24 24 24 24 24 24 24 24 25 25 25 25 24 24 24 24 25 25 26 26 26 26 26 25 26 26 26 27 28 28 29 28 28 28 29 30 30 31 32
26 26 25 24 24 24 25 25 25 24 25 25 26 26 25 25 25 25 25 26 26 26 26 26 27 27 26 26 25 25 26 26 27 28 29 29 30 30 30 30 30 31 31
27 27 26 26 26 26 26 26 25 25 26 27 26 26 26 26 26 26 26 26 26 26 26 26 26 26 26 26 26 26 26 26 26 28 29 29 30 30 30 30 30 31 31
27 27 27 27 27 27 27 27 26 26 27 27 27 27 27 27 27 27 27 27 26 26 26 26 26 26 26 27 27 27 27 27 27 28 28 28 29 30 30 30 30 31 31